time_stamp(utc),avg(mph),gust(mph),direction(deg),12m_air_temp(f),sonic_u(cm/s),sonic_v(cm/s),sonic_w(cm/s),pressure,2m_air_temp(f),pyranometer(W/m^2)
"2021-10-10 00:01:44+00",19.6,23.6,,,804,424,46,1020.26,67.3,0
"2021-10-10 00:06:44+00",20.0,23.0,,,759,466,46,1020.19,67.4,0
"2021-10-10 00:11:44+00",23.1,26.1,,68,917,530,37,1020.19,67.5,0
"2021-10-10 00:16:44+00",19.6,22.6,,,801,402,42,1020.21,67.6,0
"2021-10-10 00:21:44+00",20.6,25.6,,,843,397,33,1020.14,67.7,0
"2021-10-10 00:26:44+00",21.0,25.0,,,866,462,14,1020.15,67.7,0
"2021-10-10 00:31:44+00",21.6,23.6,,,890,452,25,1020.28,67.7,0
"2021-10-10 00:36:44+00",19.2,21.2,,,774,416,54,1020.13,67.7,0
"2021-10-10 00:41:44+00",17.8,21.8,,,727,391,65,1020.08,67.8,0
"2021-10-10 00:46:44+00",20.0,22.0,,,807,454,51,1020.07,67.7,0
"2021-10-10 00:51:44+00",19.5,22.5,,,782,431,36,1020.11,67.7,0
"2021-10-10 00:56:44+00",17.5,20.5,,,718,380,39,1020.14,67.8,0
"2021-10-10 01:01:44+00",16.1,18.1,,,628,375,38,1020.16,67.9,0
"2021-10-10 01:06:44+00",15.6,17.6,,,622,343,31,1020.07,68,0
"2021-10-10 01:11:44+00",18.0,21.0,,,738,376,25,1020.04,68.1,0
"2021-10-10 01:16:44+00",14.6,16.6,,,603,272,34,1020.08,68.2,0
"2021-10-10 01:21:44+00",15.3,17.3,,,604,329,30,1020.09,68.3,0
"2021-10-10 01:26:44+00",15.2,17.2,,,632,311,17,1020.11,68.4,0
"2021-10-10 01:31:44+00",13.0,16.0,,,542,270,25,1020.13,68.5,0
"2021-10-10 01:36:44+00",13.0,14.0,,,547,254,30,1020.06,68.5,0
"2021-10-10 01:41:44+00",14.0,18.0,,,593,221,34,1020.1,68.6,0
"2021-10-10 01:46:44+00",12.3,14.3,,,537,168,34,1020.13,68.6,0
"2021-10-10 01:51:44+00",14.3,16.3,,,650,149,36,1020.11,68.7,0
"2021-10-10 01:56:44+00",17.0,19.0,,,764,101,41,1020.09,68.8,0
"2021-10-10 02:01:44+00",15.0,18.0,,,681,69,54,1020.1,68.9,0
"2021-10-10 02:06:44+00",17.3,19.3,,,786,75,34,1020.08,69,0
"2021-10-10 02:11:44+00",16.1,18.1,,,741,48,45,1020.07,69.1,0
"2021-10-10 02:16:44+00",18.2,20.2,,,832,25,60,1020.09,69.1,0
"2021-10-10 02:21:44+00",17.8,19.8,,,792,-10,51,1020.08,69.2,0
"2021-10-10 02:26:44+00",20.4,24.4,,,913,-20,34,1020.08,69.3,0
"2021-10-10 02:31:44+00",20.2,22.2,,,902,-54,28,1020.03,69.3,0
"2021-10-10 02:36:44+00",22.1,24.1,,,995,-122,44,1019.94,69.4,0
"2021-10-10 02:41:44+00",23.4,25.4,,,1057,-72,48,1019.91,69.5,0
"2021-10-10 02:46:44+00",17.9,20.9,,,795,-54,48,1019.9,69.5,0
"2021-10-10 02:51:44+00",18.6,20.6,,,834,-31,63,1019.84,69.5,0
"2021-10-10 02:56:44+00",21.0,25.0,,,969,-65,47,1019.78,69.5,0
"2021-10-10 03:01:44+00",23.0,25.0,,,1039,-31,43,1019.69,69.5,0
"2021-10-10 03:06:44+00",19.2,21.2,,,867,-45,43,1019.74,69.5,0
"2021-10-10 03:11:44+00",19.6,21.6,,,896,-6,65,1019.72,69.5,0
"2021-10-10 03:16:44+00",22.7,25.7,,,1033,4,51,1019.74,69.5,0
"2021-10-10 03:21:44+00",24.3,27.3,,,1096,-7,59,1019.66,69.4,0
"2021-10-10 03:26:44+00",20.7,25.7,,,940,17,49,1019.69,69.5,0
"2021-10-10 03:31:44+00",23.5,27.5,,,1065,-5,75,1019.72,69.4,0
"2021-10-10 03:36:44+00",24.5,26.5,,,1110,-14,63,1019.67,69.2,0
"2021-10-10 03:41:44+00",22.8,27.8,,,1045,17,65,1019.73,69.2,0
"2021-10-10 03:46:44+00",20.2,23.2,,,905,47,50,1019.57,69.1,0
"2021-10-10 03:51:44+00",22.2,24.2,,,1012,45,59,1019.51,69.1,0
"2021-10-10 03:56:44+00",21.8,24.8,,,983,29,55,1019.57,69.2,0
"2021-10-10 04:01:44+00",26.0,29.0,,,1191,70,67,1019.52,,0
"2021-10-10 04:06:44+00",22.9,25.9,,,1034,16,78,1019.51,69.3,0
"2021-10-10 04:11:44+00",23.3,25.3,,,1058,32,74,1019.5,69.3,0
"2021-10-10 04:16:44+00",21.3,25.3,,,947,14,75,1019.53,69.3,0
"2021-10-10 04:21:44+00",21.8,23.8,,,979,33,84,1019.6,69.2,0
"2021-10-10 04:26:44+00",24.1,26.1,,,1094,38,55,1019.52,,0
"2021-10-10 04:31:44+00",23.7,26.7,,,1085,4,74,1019.57,69.2,0
"2021-10-10 04:36:44+00",24.5,26.5,,,1110,-21,67,1019.59,69.2,0
"2021-10-10 04:41:44+00",23.6,26.6,,,1059,58,70,1019.55,69.2,0
"2021-10-10 04:46:44+00",22.0,26.0,,,994,91,75,1019.56,69.2,0
"2021-10-10 04:51:44+00",24.2,26.2,,,1100,90,89,1019.57,69.1,0
"2021-10-10 04:56:44+00",23.5,26.5,,,1074,66,70,1019.57,69.1,0
"2021-10-10 05:01:44+00",25.7,28.7,,,1167,35,66,1019.52,69.1,0
"2021-10-10 05:06:44+00",24.2,29.2,,,1115,141,92,1019.55,69.1,0
"2021-10-10 05:11:44+00",21.3,23.3,,,957,106,78,1019.61,69.1,0
"2021-10-10 05:16:44+00",23.7,26.7,,,1084,65,59,1019.6,69.1,0
"2021-10-10 05:21:44+00",21.8,26.8,,,996,82,58,1019.64,69.1,0
"2021-10-10 05:26:44+00",25.7,29.7,,,1170,20,70,1019.49,69,0
"2021-10-10 05:31:44+00",25.6,28.6,,,1163,57,79,1019.44,69,0
"2021-10-10 05:36:44+00",24.5,28.5,,,1123,97,79,1019.46,69,0
"2021-10-10 05:41:44+00",21.6,24.6,,,984,47,73,1019.58,68.9,0
"2021-10-10 05:46:44+00",22.5,25.5,,,1015,109,66,1019.58,68.9,0
"2021-10-10 05:51:44+00",21.3,24.3,,,976,71,60,1019.64,68.8,0
"2021-10-10 05:56:44+00",22.2,26.2,,,1001,122,59,1019.75,68.8,0
"2021-10-10 06:01:44+00",22.3,26.3,,,1022,39,71,1019.7,,0
"2021-10-10 06:06:44+00",23.3,26.3,,,1046,155,63,1019.69,68.8,0
"2021-10-10 06:11:44+00",24.8,27.8,,,1103,227,79,1019.61,68.8,0
"2021-10-10 06:16:44+00",20.3,24.3,,,917,195,87,1019.67,68.8,0
"2021-10-10 06:21:44+00",20.3,25.3,,,912,172,67,1019.6,,0
"2021-10-10 06:26:44+00",21.1,25.1,,,925,211,53,1019.53,68.7,0
"2021-10-10 06:31:44+00",21.7,25.7,,,971,267,60,1019.39,68.6,0
"2021-10-10 06:36:44+00",20.6,22.6,,,905,255,50,1019.33,68.6,0
"2021-10-10 06:41:44+00",19.1,21.1,,,836,234,73,1019.35,68.5,0
"2021-10-10 06:46:44+00",19.1,22.1,,,844,246,54,1019.27,68.5,0
"2021-10-10 06:51:44+00",19.6,22.6,,,862,240,43,1019.23,68.5,0
"2021-10-10 06:56:44+00",20.4,23.4,,,902,206,68,1019.27,68.4,0
"2021-10-10 07:01:44+00",18.5,21.5,,,811,246,60,1019.12,,0
"2021-10-10 07:06:44+00",21.2,23.2,,,927,243,43,1019.03,,0
"2021-10-10 07:11:44+00",21.2,26.2,,,938,266,71,1019.06,68.4,0
"2021-10-10 07:16:44+00",22.5,26.5,,,972,269,76,1018.99,68.4,0
"2021-10-10 07:21:44+00",19.9,24.9,,,890,311,41,1018.96,68.5,0
"2021-10-10 07:26:44+00",22.2,27.2,,,978,289,47,1018.85,68.5,0
"2021-10-10 07:31:44+00",21.3,26.3,,,943,287,46,1018.72,,0
"2021-10-10 07:36:44+00",21.6,26.6,,,926,306,49,1018.61,68.6,0
"2021-10-10 07:41:44+00",22.0,26.0,,,945,361,31,1018.52,,0
"2021-10-10 07:46:44+00",22.6,24.6,,,967,387,49,1018.51,,0
"2021-10-10 07:51:44+00",21.2,23.2,,,931,322,43,1018.63,,0
"2021-10-10 07:56:44+00",20.2,24.2,,,887,288,59,1018.56,,0
"2021-10-10 08:01:44+00",17.8,21.8,,,760,274,52,1018.66,68.4,0
"2021-10-10 08:06:44+00",20.4,24.4,,,875,364,33,1018.62,68.3,0
"2021-10-10 08:11:44+00",22.4,28.4,,,968,339,25,1018.59,68.3,0
"2021-10-10 08:16:44+00",18.3,21.3,,,778,340,42,1018.61,,0
"2021-10-10 08:21:44+00",17.6,20.6,,,759,302,45,1018.52,68.2,0
"2021-10-10 08:26:44+00",20.0,25.0,,,841,316,53,1018.61,68.2,0
"2021-10-10 08:31:44+00",21.4,26.4,,,942,383,49,1018.45,,0
"2021-10-10 08:36:44+00",19.6,22.6,,,849,321,48,1018.45,68.1,0
"2021-10-10 08:41:44+00",18.9,22.9,,,823,322,58,1018.33,,0
"2021-10-10 08:46:44+00",21.4,25.4,,,904,352,66,1018.31,,0
"2021-10-10 08:51:44+00",23.4,26.4,,,1001,417,50,1018.32,68.1,0
"2021-10-10 08:56:44+00",19.7,23.7,,,833,338,33,1018.28,,0
"2021-10-10 09:01:44+00",18.1,21.1,,,778,280,52,1018.35,,0
"2021-10-10 09:06:44+00",20.3,25.3,,,877,383,47,1018.31,,0
"2021-10-10 09:11:44+00",22.8,26.8,,,977,391,43,1018.32,,0
"2021-10-10 09:16:44+00",21.8,26.8,,,939,360,40,1018.24,68.3,0
"2021-10-10 09:21:44+00",22.7,26.7,,,961,377,60,1018.21,68.3,0
"2021-10-10 09:26:44+00",25.6,29.6,,,1109,425,56,1018.19,68.2,0
"2021-10-10 09:31:44+00",22.0,26.0,,,963,370,80,1018.18,68.3,0
"2021-10-10 09:36:44+00",25.2,30.2,,,1095,373,61,1018.16,68.3,0
"2021-10-10 09:41:44+00",23.1,27.1,,,985,363,48,1018.12,68.3,0
"2021-10-10 09:46:44+00",23.0,26.0,,,1021,336,84,1018.12,,0
"2021-10-10 09:51:44+00",24.8,28.8,,,1076,400,65,1018.27,68.3,0
"2021-10-10 09:56:44+00",25.1,28.1,,,1085,419,44,1018.24,68.3,0
"2021-10-10 10:01:44+00",24.2,29.2,,,1040,345,44,1018.18,68.3,0
"2021-10-10 10:06:44+00",20.9,24.9,,,926,256,56,1018.25,68.3,0
"2021-10-10 10:11:44+00",22.6,29.6,,,956,283,66,1018.25,68.4,0
"2021-10-10 10:16:44+00",22.0,26.0,,,977,291,77,1018.33,,0
"2021-10-10 10:21:44+00",26.8,30.8,,,1183,323,79,1018.36,,0
"2021-10-10 10:26:44+00",21.6,24.6,,,954,207,72,1018.41,,0
"2021-10-10 10:31:44+00",27.2,31.2,,,1191,313,73,1018.47,68.4,0
"2021-10-10 10:36:44+00",22.1,25.1,,,974,353,51,1018.51,,0
"2021-10-10 10:41:44+00",24.2,28.2,,,1039,408,63,1018.43,,0
"2021-10-10 10:46:44+00",23.6,27.6,,,1033,391,48,1018.41,,0
"2021-10-10 10:51:44+00",20.1,24.1,,,882,325,48,1018.42,,0
"2021-10-10 10:56:44+00",20.4,23.4,,,879,313,67,1018.45,,0
"2021-10-10 11:01:44+00",21.8,26.8,,,920,341,80,1018.47,68.3,0
"2021-10-10 11:06:44+00",23.1,27.1,,,995,430,39,1018.48,,0
"2021-10-10 11:11:44+00",21.6,26.6,,,930,363,37,1018.5,,0
"2021-10-10 11:16:44+00",21.1,26.1,,,938,329,62,1018.66,,0
"2021-10-10 11:21:44+00",22.6,26.6,,,997,344,57,1018.58,,0
"2021-10-10 11:26:44+00",20.1,23.1,,,877,322,52,1018.67,68.3,0
"2021-10-10 11:31:44+00",22.7,26.7,,,1003,275,71,1018.7,,0
"2021-10-10 11:36:44+00",24.1,28.1,,,1057,333,77,1018.67,,0
"2021-10-10 11:41:44+00",23.9,27.9,,,1060,297,72,1018.64,,0
"2021-10-10 11:46:44+00",22.8,26.8,,,993,296,66,1018.64,,0
"2021-10-10 11:51:44+00",25.0,28.0,,,1100,280,39,1018.58,,0
"2021-10-10 11:56:44+00",23.2,28.2,,,1066,240,93,1018.58,,0
"2021-10-10 12:01:44+00",23.2,25.2,,,1031,266,60,1018.58,,0
"2021-10-10 12:06:44+00",28.0,31.0,,,1239,338,81,1018.53,,0
"2021-10-10 12:11:44+00",20.8,23.8,,,916,243,67,1018.69,,0
"2021-10-10 12:16:44+00",21.6,24.6,,,951,325,43,1018.65,,0
"2021-10-10 12:21:44+00",24.1,28.1,,,1033,369,62,1018.66,,0
"2021-10-10 12:26:44+00",21.6,26.6,,,932,361,65,1018.71,,0.1
"2021-10-10 12:31:44+00",21.7,25.7,,,930,412,63,1018.81,,0
"2021-10-10 12:36:44+00",20.0,25.0,,,876,356,56,1018.78,,0.7
"2021-10-10 12:41:44+00",20.6,24.6,,,856,433,40,1018.75,,0.2
"2021-10-10 12:46:44+00",23.5,25.5,,,1004,437,50,1018.69,,8
"2021-10-10 12:51:44+00",18.7,25.7,,,806,364,71,1018.82,,2.6
"2021-10-10 12:56:44+00",17.7,22.7,,,727,404,56,1018.86,,0
"2021-10-10 13:01:44+00",20.3,22.3,,,774,514,19,1018.85,,0
"2021-10-10 13:06:44+00",18.0,22.0,,,748,372,46,1018.85,,1
"2021-10-10 13:11:44+00",18.4,20.4,,,727,414,63,1018.83,,16.5
"2021-10-10 13:16:44+00",22.2,25.2,,,884,512,19,1018.78,,4.9
"2021-10-10 13:21:44+00",20.2,24.2,,,778,490,33,1018.86,,1.1
"2021-10-10 13:26:44+00",19.3,22.3,,,786,427,48,1018.89,,0.7
"2021-10-10 13:31:44+00",19.6,22.6,,,753,501,25,1018.94,,0.4
"2021-10-10 13:36:44+00",19.8,23.8,,,791,459,52,1018.9,,0.8
"2021-10-10 13:41:44+00",21.7,25.7,,,855,482,29,1018.85,,18.7
"2021-10-10 13:46:44+00",24.3,27.3,,,985,546,35,1018.91,,2.1
"2021-10-10 13:51:44+00",19.3,23.3,,,764,423,50,1018.94,,7.2
"2021-10-10 13:56:44+00",20.7,22.7,,,837,439,34,1018.88,,3.8
"2021-10-10 14:01:44+00",20.6,24.6,,,857,399,69,1018.8,,15
"2021-10-10 14:06:44+00",24.0,28.0,,,989,519,24,1018.75,,58.8
"2021-10-10 14:11:44+00",20.6,23.6,,,822,456,32,1018.81,,25.4
"2021-10-10 14:16:44+00",20.7,23.7,,,768,492,44,1018.71,,22
"2021-10-10 14:21:44+00",20.9,24.9,,,858,426,36,1018.69,,73
"2021-10-10 14:26:44+00",21.6,24.6,,,903,433,48,1018.63,70.2,66.9
"2021-10-10 14:31:44+00",21.7,24.7,,,901,439,37,1018.53,,59
"2021-10-10 14:36:44+00",20.2,22.2,,,826,440,18,1018.45,,50
"2021-10-10 14:41:44+00",19.4,24.4,,,843,380,49,1018.44,,64
"2021-10-10 14:46:44+00",20.8,23.8,,,832,441,45,1018.39,,107.7
"2021-10-10 14:51:44+00",19.6,22.6,,,803,402,42,1018.4,,110.6
"2021-10-10 14:56:44+00",17.5,19.5,,,726,352,44,1018.45,,118.9
"2021-10-10 15:01:44+00",20.0,23.0,,,847,377,32,1018.35,,119.1
"2021-10-10 15:06:44+00",18.6,20.6,,,769,375,48,1018.27,,106.7
"2021-10-10 15:11:44+00",18.2,22.2,,,780,342,50,1018.13,,103.2
"2021-10-10 15:16:44+00",18.8,20.8,,,809,348,46,1018.02,,104.3
"2021-10-10 15:21:44+00",17.1,19.1,,,736,322,50,1018.01,,56.6
"2021-10-10 15:26:44+00",20.3,22.3,,,868,352,48,1018.05,,49.6
"2021-10-10 15:31:44+00",16.5,18.5,,,717,319,46,1018.04,,49.4
"2021-10-10 15:36:44+00",17.8,20.8,,,759,353,51,1018.02,,31.7
"2021-10-10 15:41:44+00",19.5,20.5,,,851,314,54,1017.97,,7.1
"2021-10-10 15:46:44+00",20.2,21.2,,,846,420,39,1017.88,,1.6
"2021-10-10 15:51:44+00",19.9,21.9,,,852,337,61,1017.84,,30.1
"2021-10-10 15:56:44+00",17.9,21.9,,,727,350,66,1017.81,,28
"2021-10-10 16:01:44+00",20.7,22.7,,,867,394,62,1017.79,,8.7
"2021-10-10 16:06:44+00",22.4,25.4,,,914,482,56,1017.72,,11
"2021-10-10 16:11:44+00",21.7,26.7,,,890,490,42,1017.82,,0.1
"2021-10-10 16:16:44+00",22.6,24.6,,,876,544,53,1017.7,,2.1
"2021-10-10 16:21:44+00",19.2,21.2,,,808,405,37,1017.71,,0
"2021-10-10 16:26:44+00",20.9,23.9,,,767,551,42,1017.58,68.8,3.7
"2021-10-10 16:31:44+00",19.5,20.5,,,721,491,55,1017.59,68.9,58.8
"2021-10-10 16:36:44+00",20.3,24.3,,,829,421,46,1017.58,69.1,138.4
"2021-10-10 16:41:44+00",20.2,23.2,,,803,449,45,1017.45,69.2,59.7
"2021-10-10 16:46:44+00",21.5,23.5,,,901,445,44,1017.5,69.4,102.9
"2021-10-10 16:51:44+00",19.2,21.2,,,771,419,34,1017.48,69.5,91.7
"2021-10-10 16:56:44+00",19.3,22.3,,,752,442,42,1017.48,69.7,74.6
"2021-10-10 17:01:44+00",17.9,19.9,,,701,399,54,1017.41,69.8,107
"2021-10-10 17:06:44+00",18.1,21.1,,,733,389,47,1017.39,70.3,219
"2021-10-10 17:11:44+00",17.9,20.9,,,775,355,61,1017.35,70.7,151.3
"2021-10-10 17:16:44+00",17.6,20.6,,,741,357,49,1017.3,70.6,30.2
"2021-10-10 17:21:44+00",18.3,21.3,,,776,361,41,1017.27,70.7,140.5
"2021-10-10 17:26:44+00",21.4,23.4,,,928,313,62,1017.24,70.9,223.1
"2021-10-10 17:31:44+00",18.9,23.9,,,852,208,66,1017.16,71.3,134.8
"2021-10-10 17:36:44+00",18.8,21.8,,,855,131,68,1017.13,71.3,88.5
"2021-10-10 17:41:44+00",24.0,28.0,,,1076,92,85,1017.01,71.1,54
"2021-10-10 17:46:44+00",21.1,24.1,,,947,32,56,1017.02,70.8,22.8
"2021-10-10 17:51:44+00",28.6,32.6,,,1310,-28,81,1016.83,70.5,75.2
"2021-10-10 17:56:44+00",29.1,31.1,,,1320,-110,72,1016.85,70.3,109.3
"2021-10-10 18:01:44+00",28.6,30.6,,,1301,-81,79,1016.93,70.2,103.5
"2021-10-10 18:06:44+00",24.3,26.3,,,1106,-1,85,1016.99,70.3,105.4
"2021-10-10 18:11:44+00",25.8,27.8,,,1179,-48,56,1016.99,70.2,40
"2021-10-10 18:16:44+00",24.1,28.1,,,1101,-119,47,1017,70,0
"2021-10-10 18:21:44+00",30.2,35.2,,,1332,-250,63,1016.91,69,9.6
"2021-10-10 18:26:44+00",24.5,29.5,,,1089,-140,72,1017.09,68.7,57.5
"2021-10-10 18:31:44+00",29.8,33.8,,,1372,4,84,1016.88,68.5,71.4
"2021-10-10 18:36:44+00",30.9,32.9,,,1394,-84,55,1016.78,68.4,85.4
"2021-10-10 18:41:44+00",29.3,35.3,,,1337,-78,78,1016.78,68.5,74.7
"2021-10-10 18:46:44+00",25.4,29.4,,,1171,27,70,1016.93,68.6,64.9
"2021-10-10 18:51:44+00",26.8,29.8,,,1220,-9,65,1016.85,68.6,56.1
"2021-10-10 18:56:44+00",29.3,34.3,,,1343,22,74,1016.91,68.7,52
"2021-10-10 19:01:44+00",24.6,28.6,,,1126,28,67,1016.92,68.7,55.7
"2021-10-10 19:06:44+00",23.6,26.6,,,1067,116,63,1016.89,68.8,50.7
"2021-10-10 19:11:44+00",24.3,28.3,,,1100,105,78,1016.82,68.8,41
"2021-10-10 19:16:44+00",29.2,33.2,,,1316,51,84,1016.59,68.7,48.3
"2021-10-10 19:21:44+00",27.0,31.0,,,1201,-72,56,1016.73,68.6,64.4
"2021-10-10 19:26:44+00",24.7,28.7,,,1111,20,70,1016.75,68.7,82.6
"2021-10-10 19:31:44+00",23.5,27.5,,,1059,92,64,1016.73,68.9,85.7
"2021-10-10 19:36:44+00",29.8,32.8,,,1331,199,85,1016.59,68.9,66.5
"2021-10-10 19:41:44+00",20.9,25.9,,,953,128,92,1016.54,69,61.4
"2021-10-10 19:46:44+00",22.1,28.1,,,980,208,75,1016.48,69.1,64.1
"2021-10-10 19:51:44+00",24.7,26.7,,,1091,189,94,1016.41,69.3,137.4
"2021-10-10 19:56:44+00",23.3,28.3,,,1049,224,74,1016.45,69.6,97.5
"2021-10-10 20:01:44+00",21.6,25.6,,,974,190,96,1016.58,69.5,84.9
"2021-10-10 20:06:44+00",19.4,23.4,,,887,180,64,1016.67,69.7,78.1
"2021-10-10 20:11:44+00",24.7,28.7,,,1087,326,71,1016.62,69.6,73.2
"2021-10-10 20:16:44+00",24.3,28.3,,,1088,267,55,1016.54,69.5,27.6
"2021-10-10 20:21:44+00",18.6,21.6,,,806,278,96,1016.64,69.3,0
"2021-10-10 20:26:44+00",24.3,28.3,,,1081,323,57,1016.63,69.1,0.1
"2021-10-10 20:31:44+00",22.4,26.4,,,974,328,36,1016.59,69.1,5.6
"2021-10-10 20:36:44+00",23.1,28.1,,,1029,305,56,1016.59,69.1,1.6
"2021-10-10 20:41:44+00",23.0,27.0,,,1023,267,83,1016.57,69.1,41.4
"2021-10-10 20:46:44+00",24.4,29.4,,,1081,304,97,1016.53,69.3,50.5
"2021-10-10 20:51:44+00",21.1,24.1,,,962,239,44,1016.55,69.3,25
"2021-10-10 20:56:44+00",24.5,28.5,,,1080,355,70,1016.57,69,17.5
"2021-10-10 21:01:44+00",20.9,24.9,,,890,318,72,1016.57,68.8,3.1
"2021-10-10 21:06:44+00",21.1,24.1,,,906,375,52,1016.6,68.5,6
"2021-10-10 21:11:44+00",22.2,26.2,,,956,401,50,1016.61,68.4,0.3
"2021-10-10 21:16:44+00",20.3,23.3,,,867,354,42,1016.58,68.2,0
"2021-10-10 21:21:44+00",21.1,24.1,,,924,289,69,1016.63,67.9,0
"2021-10-10 21:26:44+00",22.3,27.3,,,951,359,75,1016.57,,0
"2021-10-10 21:31:44+00",24.8,29.8,,,1314,418,-91,1016.63,,0
"2021-10-10 21:36:44+00",27.9,31.9,,,1378,504,-56,1016.69,,0
"2021-10-10 21:41:44+00",24.0,27.0,,,1015,440,44,1016.79,66.6,0
"2021-10-10 21:46:44+00",17.7,21.7,,,714,371,55,1016.71,66.5,0
"2021-10-10 21:51:44+00",21.2,27.2,,,892,430,54,1016.7,66.5,0
"2021-10-10 21:56:44+00",18.1,24.1,,,699,450,48,1016.71,66.4,0
"2021-10-10 22:01:44+00",20.3,22.3,,,812,438,36,1016.66,66.3,0
"2021-10-10 22:06:44+00",18.0,20.0,,,709,383,38,1016.65,66.3,0
"2021-10-10 22:11:44+00",25.8,30.8,,,1080,538,34,1016.61,66.3,0
"2021-10-10 22:16:44+00",21.7,24.7,,,884,437,74,1016.59,66.2,0
"2021-10-10 22:21:44+00",22.8,27.8,,,848,542,73,1016.52,66.3,0
"2021-10-10 22:26:44+00",24.9,28.9,,,1029,477,45,1016.49,66.3,0
"2021-10-10 22:31:44+00",23.7,28.7,,,956,488,62,1016.47,66.4,0
"2021-10-10 22:36:44+00",23.7,28.7,,,954,513,51,1016.44,66.4,0
"2021-10-10 22:41:44+00",21.7,25.7,,,908,408,54,1016.34,66.5,0
"2021-10-10 22:46:44+00",18.7,21.7,,,775,364,54,1016.28,66.6,0
"2021-10-10 22:51:44+00",24.2,28.2,,,991,492,35,1016.2,66.6,0
"2021-10-10 22:56:44+00",21.9,25.9,,,922,428,50,1016.26,66.6,0
"2021-10-10 23:01:44+00",20.8,27.8,,,855,474,40,1016.24,66.8,0
"2021-10-10 23:06:44+00",26.1,29.1,,,1095,504,49,1016.15,66.8,0
"2021-10-10 23:11:44+00",25.8,29.8,,,1102,495,68,1016.17,66.9,0
"2021-10-10 23:16:44+00",28.2,33.2,,,1167,561,63,1016.08,66.9,0
"2021-10-10 23:21:44+00",26.7,32.7,,,1129,515,67,1016.12,66.9,0
"2021-10-10 23:26:44+00",26.6,32.6,,,1046,577,31,1016.23,67,0
"2021-10-10 23:31:44+00",27.2,35.2,,,1150,551,75,1016.06,66.9,0
"2021-10-10 23:36:44+00",27.2,34.2,,,1129,533,65,1016.08,67,0
"2021-10-10 23:41:44+00",27.6,32.6,,,1158,609,40,1016.08,67.1,0
"2021-10-10 23:46:44+00",26.0,32.0,,,1106,529,69,1016.12,67.1,0
"2021-10-10 23:51:44+00",26.3,36.3,,,1059,601,62,1016.19,67,0
"2021-10-10 23:56:44+00",30.6,36.6,,,1296,583,72,1016.18,67,0
